Buscar
  • Menú Principal
  • Est. Meteorològica
  • Mareògraf
  • Previsió
Les dades presentades són DEUMINUTALS

Data últim calibratge: ** PENDENT **

Estat: Darrera lectura: 25/01 00:50 Hora local
Velocitat del vent: 11,3 Km/h Ratxa màxima: 16,7 km/h
V.vent (nusos): 6,1 Nudos Dir. procedència: ONO (280º)
Temp. De l'aire: 11 ºC Hum. rel.: 64,3 %
         
Rosa de vent (últimes 24 h i 7 dies previs a 25/01 00:50 Hora local )
Rosa 24 Horas Rosa 7 Días
Últimes 24 hores Últims 7 dies
Descripció de l'estació:
         
Posició de l'estació
Imagen estacion
TOTES LES DADES ESTAN EN HORA LOCAL
Data
Vel. vent. (Km/h)
Dir. vent (º)
Max. vent. (Km/h):
Temp. aire (º C)
Hum. relativa (%)
2021/01/25 00:5011,328016,71164,3
2021/01/25 00:4010,427814,41164,1
2021/01/25 00:3010,825316,01163,4
2021/01/25 00:2012,125917,81163,6
2021/01/25 00:1012,427119,81165,7
2021/01/25 00:009,927314,91166,5
2021/01/24 23:5010,327415,31165,8
2021/01/24 23:409,624817,31264,6
2021/01/24 23:3011,724323,01362,6
2021/01/24 23:2015,724127,91359,0
2021/01/24 23:1019,721133,61458,2
2021/01/24 23:0019,323134,11457,7
2021/01/24 22:5016,824329,11460,2
2021/01/24 22:4018,623530,31461,4
2021/01/24 22:3020,622636,41364,5
2021/01/24 22:2022,421434,61364,9
2021/01/24 22:1020,218533,31365,6
2021/01/24 22:0018,220630,31464,2
2021/01/24 21:5016,120828,91461,9
2021/01/24 21:4017,022727,01459,9
2021/01/24 21:3015,622625,21460,9
2021/01/24 21:2013,320823,71460,9
2021/01/24 21:1013,430221,91463,0
2021/01/24 21:0011,721719,71459,6
Página 1 de 24 (576 Datos)< Prev1234567222324Next >
TOTES LES DADES ESTAN EN HORA LOCAL
Data
Vel. vent. (Km/h)
Dir. vent (º)
Max. vent. (Km/h):
Temp. aire (º C)
Hum. relativa (%)
2021/01/25 00:0011,128016,61164,6
2021/01/24 23:0014,427425,21361,3
2021/01/24 22:0019,524332,31463,5
2021/01/24 21:0014,520824,41461,0
2021/01/24 20:0015,322726,61458,8
2021/01/24 19:0015,519226,91455,0
2021/01/24 18:0013,118725,61551,2
2021/01/24 17:0019,918942,21545,6
2021/01/24 16:0032,425256,61642,1
2021/01/24 15:0034,326159,11642,1
2021/01/24 14:0025,325745,81540,2
2021/01/24 13:0022,427141,91541,3
2021/01/24 12:0019,626036,11445,5
2021/01/24 11:0028,628158,91446,0
2021/01/24 10:0032,627163,91354,8
2021/01/24 09:0031,325159,91264,1
2021/01/24 08:0032,523861,61264,6
2021/01/24 07:0035,924366,41363,4
2021/01/24 06:0042,327382,71457,4
2021/01/24 05:0045,225383,21553,4
2021/01/24 04:0037,127671,51554,8
2021/01/24 03:0021,625744,71466,3
2021/01/24 02:004,126410,71082,5
2021/01/24 01:004,02298,2983,5
Página 1 de 4 (96 Datos)< Prev1234Next >
TOTES LES DADES ESTAN EN HORA LOCAL
Data
Vel. vent. (Km/h)
Dir. vent (º)
Max. vent. (Km/h):
Temp. aire (º C)
Hum. relativa (%)
2021/01/24 00:0023,928044,61456,8
2021/01/23 00:0014,719728,41256,6
2021/01/22 00:0019,018139,71362,8
2021/01/21 00:006,927712,51178,9
TOTES LES DADES ESTAN EN HORA LOCAL
Les dades presentades són DEUMINUTALS
48 Hores
24 Hores
12 Hores
6 Hores
3 Hores

The Velocitat del vent (km/h) chart showing Velocitat del vent (km/h) series.

The Direcció vent (º) chart showing Direcció vent (º) series.


The Temperatura (º) chart showing Temperatura (º) series.